Probability
0 0 0 0 0 0 0 1 2 3 4 5 8 11 16 19 19 17 15 13 15 18 21 20 19 19 19 17 16 15 16 17 18 21 21 20 19 17 16 15 16 17 16 15
0 0 0 0 0 0 0 1 2 3 3 5 9 13 17 19 19 17 17 17 18 20 22 21 19 18 18 18 18 17 15 15 16 19 20 20 19 19 18 18 18 17 16 15
0 0 0 0 0 0 0 1 2 2 3 6 10 13 15 15 16 19 21 21 20 20 21 21 18 18 18 19 21 20 18 17 16 17 19 20 20 20 19 19 19 18 16 14
1 1 0 0 1 1 1 1 1 2 4 8 11 12 11 11 14 19 20 18 17 15 17 18 17 17 18 20 22 23 23 21 19 18 19 20 22 21 18 17 17 18 17 16
0 0 0 0 0 1 2 2 2 3 6 9 12 12 10 10 12 15 14 13 12 12 15 18 19 20 20 20 22 24 25 24 21 20 21 21 22 20 15 13 14 16 17 17
0 0 1 1 1 0 1 2 3 5 8 11 12 11 11 11 12 12 11 11 12 13 16 20 23 25 25 23 22 24 25 25 23 21 22 21 20 17 12 10 11 13 15 15
1 1 3 3 2 1 2 4 6 9 12 12 11 11 11 13 13 12 12 15 17 19 20 21 25 29 29 25 24 24 25 24 23 22 21 18 15 13 11 10 10 11 11 11
5 5 6 6 4 3 5 8 11 15 16 14 13 12 12 12 12 11 14 18 21 22 21 20 23 27 27 24 23 24 24 21 19 19 16 13 11 10 8 8 9 9 9 8
12 11 10 10 7 6 8 13 18 21 20 17 15 13 12 12 12 13 15 18 20 20 19 19 20 23 24 23 22 22 21 17 15 14 12 11 9 8 6 6 7 8 8 8
16 15 14 12 10 9 11 16 21 23 20 16 14 13 12 13 14 15 16 17 18 19 19 18 18 21 24 25 22 20 18 15 13 12 12 12 11 8 7 6 6 7 8 7
13 13 13 12 12 13 15 16 19 20 16 13 12 12 13 13 13 13 14 15 17 20 21 20 19 20 24 25 23 20 16 14 12 11 11 12 11 9 7 6 5 5 5 5
8 8 9 10 12 13 14 14 13 13 13 11 11 13 12 11 10 10 11 12 15 18 20 19 18 19 22 23 22 20 16 12 11 9 9 9 9 7 5 3 2 2 3 3
3 3 4 5 7 8 10 11 10 11 11 11 13 14 13 10 10 11 11 11 12 15 16 16 15 16 19 20 19 18 15 11 10 9 8 7 7 6 4 2 1 0 1 1
1 1 2 2 2 4 7 9 9 10 9 10 11 13 13 12 12 13 13 12 12 13 13 13 13 13 15 16 15 14 11 9 8 8 7 7 7 7 6 4 2 1 0 0
1 0 0 1 2 4 6 8 9 8 7 7 8 11 12 12 13 14 13 12 11 11 11 11 11 11 11 12 13 12 9 6 5 5 6 7 8 7 6 4 3 1 0 0
1 0 0 1 2 4 5 6 7 5 4 4 5 7 10 11 12 12 11 9 9 8 8 7 7 8 9 10 11 12 9 4 1 2 2 4 6 6 4 2 1 0 0 0
1 0 0 1 2 2 2 3 3 2 1 1 2 4 7 9 10 10 8 7 6 6 5 4 4 4 5 6 8 8 7 3 0 0 0 1 3 3 1 0 1 1 1 1
0 0 0 0 1 1 1 1 0 0 0 0 1 3 6 8 8 7 7 6 6 4 3 3 3 2 2 3 4 4 4 2 1 0 0 1 1 1 0 0 1 2 2 2
0 0 0 0 0 1 1 1 0 0 0 1 2 4 5 6 7 7 6 6 5 4 3 3 2 1 0 1 2 3 4 2 1 0 1 1 1 0 0 0 1 1 1 1
1 1 1 1 0 1 2 2 1 0 0 1 2 4 5 6 7 7 6 6 4 3 3 2 2 1 1 1 1 3 3 2 1 0 1 2 1 0 0 0 0 0 0 0
3 3 2 1 0 1 2 2 1 0 0 1 3 4 6 7 8 7 6 6 4 2 1 1 2 2 2 2 2 3 3 2 1 0 1 1 1 0 0 0 0 0 0 0
3 2 2 1 1 2 3 3 1 1 1 2 4 5 7 8 7 6 6 5 3 1 0 1 2 3 3 3 3 3 3 3 1 0 0 0 0 0 0 0 0 0 0 0
2 1 1 2 3 4 4 4 3 4 4 5 5 6 6 6 6 5 4 3 1 0 1 2 3 2 2 3 3 3 3 3 2 1 0 0 0 0 0 0 0 0 0 0
2 2 2 3 4 5 6 6 6 6 6 6 5 4 4 4 3 2 1 1 0 1 2 3 2 1 1 2 3 3 3 3 2 1 0 0 0 0 0 0 0 0 0 0
2 2 3 4 4 5 6 6 5 5 4 3 3 3 3 2 1 0 0 0 0 1 2 3 2 0 1 2 3 3 3 3 2 1 0 0 0 0 0 0 0 0 0 0
3 3 3 4 4 3 3 2 2 2 1 1 2 2 2 1 0 0 0 1 1 2 3 3 2 1 1 3 3 3 3 3 1 0 0 0 0 0 0 0 0 0 0 0
2 2 4 4 3 2 0 0 0 1 0 1 2 3 2 1 0 0 0 1 2 3 3 3 3 2 2 3 3 3 3 2 1 0 0 0 0 0 0 0 0 0 0 0
Wind_Speed
7 5 6 7 8 9 10 9 9 6 5 1 0 0 2 4 5 5 6 6 6 5 5 5 5 4 4 3 3 3 3 3 3 3 3 3 3 2 2 2 3 2 2 2
10 9 8 8 8 9 9 9 9 8 5 1 1 1 2 3 4 5 6 5 5 5 5 5 5 4 4 3 3 3 3 3 3 3 3 3 3 3 2 2 2 2 2 2
9 9 11 12 9 9 8 7 7 7 3 2 1 1 2 2 3 4 4 5 5 5 5 4 4 4 3 3 3 3 2 2 2 3 3 2 3 3 2 2 2 2 2 2
7 8 12 3 3 6 7 6 5 3 2 2 1 1 2 2 3 3 4 4 4 4 4 4 4 4 3 3 3 3 2 2 1 1 2 2 2 2 2 2 2 2 2 1
8 10 9 5 5 6 7 6 3 2 2 1 1 2 3 2 2 2 3 3 2 2 3 3 3 4 3 3 2 2 2 2 1 1 1 2 2 2 2 2 2 2 2 2
8 10 9 4 3 3 6 6 2 1 1 1 3 3 2 2 2 2 3 3 3 2 2 3 3 3 3 3 2 1 1 1 1 1 1 1 1 2 1 2 2 2 2 2
10 9 4 2 2 5 8 1 2 1 1 1 1 2 3 3 2 3 3 4 3 3 2 2 2 3 3 2 2 1 1 1 1 1 1 1 2 1 2 2 2 1 1 1
9 9 4 4 3 2 3 3 1 1 1 1 2 3 3 3 3 3 3 3 3 3 3 2 2 2 3 2 2 2 1 1 1 1 1 2 2 2 2 2 3 2 2 1
3 1 4 3 2 3 2 1 1 1 1 2 2 3 3 3 3 4 3 3 3 4 4 3 3 2 2 2 1 1 2 2 1 1 1 2 2 2 2 2 1 1 1 1
2 2 2 2 2 3 2 2 2 1 1 2 3 3 3 3 4 4 4 3 3 3 3 3 3 2 2 2 1 2 2 2 2 1 1 2 1 1 1 0 0 0 0 1
3 2 2 2 2 3 3 2 2 2 2 2 3 4 4 4 4 4 3 3 3 3 3 3 3 3 3 3 2 2 2 1 1 1 2 1 1 1 1 2 2 1 1 1
2 2 1 1 1 2 2 1 1 2 2 2 3 4 4 4 4 4 4 4 3 3 3 3 3 3 3 2 2 2 1 1 1 1 1 1 1 2 4 3 4 3 3 2
1 1 1 1 1 2 1 2 1 1 2 2 3 4 4 4 4 4 4 3 3 3 3 3 3 3 2 2 2 2 1 1 0 0 0 0 0 1 1 2 3 3 2 1
1 1 1 1 1 1 1 2 2 2 3 3 3 4 4 5 4 4 3 3 3 3 2 2 2 2 2 1 1 1 1 1 0 0 0 0 1 0 0 1 1 1 2 2
1 1 2 1 1 1 1 1 2 2 3 3 3 4 4 5 4 4 3 3 3 2 2 2 2 2 2 1 0 0 0 0 0 1 1 1 1 1 1 1 1 1 0 2
1 2 3 3 2 1 1 1 1 2 2 3 3 4 4 4 4 4 3 2 2 2 2 2 2 2 1 0 0 1 0 1 1 1 1 1 1 1 1 1 1 1 1 1
3 3 2 2 2 1 1 1 1 1 2 2 3 3 4 4 4 3 3 2 3 2 2 1 1 1 1 0 1 1 0 1 1 1 1 1 1 1 1 1 1 2 2 1
2 2 2 2 2 1 1 1 1 1 2 2 3 3 4 4 3 3 2 3 3 2 2 1 1 1 0 1 1 1 0 0 0 1 1 1 1 1 1 2 2 3 2 1
2 2 2 2 2 2 2 1 1 2 2 2 3 3 3 3 3 3 2 2 2 2 1 2 1 0 1 2 1 1 1 0 0 0 1 0 2 1 1 2 2 3 3 2
1 2 2 2 2 2 2 1 2 2 2 2 3 3 3 3 3 2 2 2 1 1 1 1 0 0 1 1 2 1 1 1 0 0 1 1 1 1 2 2 2 3 3 2
1 1 1 1 1 1 1 2 2 2 2 2 3 3 3 3 3 2 2 2 2 2 1 1 1 0 1 1 3 1 1 1 1 1 1 1 1 2 2 3 3 3 3 3
1 1 1 1 1 1 1 2 3 3 3 3 3 3 3 3 3 3 2 1 2 1 1 1 0 2 2 3 2 1 2 2 2 2 1 1 2 2 2 3 3 3 3 3
1 1 1 1 2 2 2 2 3 3 3 3 3 3 3 2 2 2 2 2 2 1 1 1 2 1 3 4 1 1 2 2 2 2 2 1 2 2 2 3 3 3 3 3
1 1 2 2 3 3 3 3 2 2 3 3 3 3 2 2 2 1 1 3 3 2 1 2 2 1 5 3 2 2 2 2 2 2 2 1 2 2 2 3 3 3 3 3
1 1 2 2 3 3 3 3 3 3 3 2 3 3 2 1 1 1 1 2 3 3 2 4 4 4 4 2 2 2 2 2 3 3 2 2 2 2 2 2 2 3 3 3
2 2 1 2 1 2 2 2 2 2 2 2 2 2 2 2 2 2 2 2 2 3 2 2 3 4 3 2 2 2 2 1 2 2 2 2 3 3 2 2 3 3 3 3
3 2 3 3 2 2 1 1 1 1 1 2 2 2 2 2 2 1 1 1 2 2 2 2 2 2 2 2 2 2 2 2 2 2 2 2 2 2 2 3 3 3 3 3
Wind_Direction
251 258 239 226 224 224 239 256 266 262 263 255 310 144 143 158 158 154 152 150 145 143 139 146 149 153 158 167 167 173 189 190 182 190 197 198 194 202 211 223 222 218 226 228
232 233 238 236 231 229 235 248 254 257 258 354 74 100 137 159 164 164 160 154 146 143 144 148 149 153 158 163 161 169 188 194 183 183 189 195 190 194 193 203 222 213 224 234
234 226 236 234 235 234 230 240 251 255 254 213 179 154 155 163 173 165 157 151 149 152 153 154 156 154 158 156 151 156 171 182 188 195 191 197 198 188 196 197 202 213 221 237
238 228 238 231 229 240 230 236 244 247 236 216 191 159 136 150 166 161 158 154 152 154 151 153 151 148 154 149 148 147 150 156 167 202 196 190 190 191 199 203 199 213 227 235
234 231 230 199 203 219 223 227 233 233 207 209 175 170 142 101 129 141 146 143 137 141 144 142 142 136 145 149 146 145 142 142 150 181 180 193 188 190 194 191 195 209 207 213
233 243 238 187 158 208 230 212 120 125 166 177 206 223 125 92 119 126 119 116 115 119 136 137 136 137 145 149 142 141 155 168 155 169 180 183 171 175 172 197 199 207 192 191
234 242 228 83 130 199 223 148 107 135 144 172 279 7 85 94 100 111 112 114 122 128 127 129 131 137 143 137 128 122 140 148 139 153 185 161 132 150 166 185 176 184 156 157
231 238 204 98 166 222 29 54 120 116 102 75 71 89 112 118 118 117 114 117 123 121 116 117 121 136 134 118 103 111 130 131 139 154 164 122 131 144 149 165 169 169 169 180
266 315 76 85 67 55 40 90 100 105 98 94 105 109 115 120 119 117 117 113 113 111 111 110 111 114 118 108 117 135 132 120 118 132 142 139 150 154 163 170 185 167 180 215
220 169 115 88 83 68 57 67 69 72 98 122 124 124 129 123 116 117 116 115 112 117 116 109 108 105 94 91 95 113 108 107 120 134 142 128 150 147 124 105 81 51 355 318
220 178 147 126 60 42 43 48 57 67 80 104 124 131 133 128 121 114 108 107 107 105 102 98 99 94 90 93 93 96 98 94 108 104 97 103 83 31 42 56 47 36 11 349
248 191 225 131 52 29 25 42 61 78 81 91 118 130 134 128 124 122 120 114 107 98 91 86 83 80 77 95 101 89 98 96 77 75 96 124 114 90 63 71 87 79 40 355
299 273 41 79 35 16 4 25 49 87 109 103 113 129 133 128 126 124 124 124 117 110 103 98 85 74 77 84 101 93 71 58 51 60 123 171 115 113 110 104 118 125 117 52
169 153 150 152 41 17 38 45 51 72 91 97 111 125 127 129 127 128 127 126 122 116 109 102 89 70 62 84 92 70 35 79 323 302 263 232 222 231 226 252 238 186 152 154
228 221 186 171 140 106 87 90 92 95 97 107 121 134 139 135 130 124 120 118 113 110 97 86 79 60 37 36 115 220 278 62 293 301 257 237 225 213 234 253 279 293 331 126
218 182 168 164 152 139 118 109 99 102 106 114 126 137 140 135 132 130 130 126 122 107 82 66 50 27 14 344 284 253 194 97 259 272 262 252 236 231 247 272 283 284 283 294
205 189 181 175 173 177 155 88 77 103 116 122 131 141 143 141 141 138 140 128 110 98 85 66 35 12 358 335 272 288 333 120 178 253 296 319 304 292 290 280 275 272 266 229
222 205 192 179 184 171 159 119 107 125 131 142 147 156 157 156 157 145 140 126 115 103 84 68 39 2 40 44 332 319 326 19 295 314 328 324 310 295 296 307 300 288 280 192
165 164 162 163 170 166 162 147 139 136 143 166 170 164 162 157 150 142 134 136 139 130 90 65 66 273 63 54 343 276 284 222 160 311 294 211 253 272 299 307 305 305 303 303
125 147 138 141 156 163 168 169 166 157 162 175 164 160 161 153 147 145 142 149 133 80 93 63 76 17 59 68 317 308 328 327 347 320 299 276 287 303 304 303 305 312 312 312
123 135 142 141 133 147 175 175 169 171 171 166 158 161 159 159 163 166 170 154 105 79 110 146 226 339 10 4 270 286 301 297 285 276 282 283 283 286 298 309 310 311 314 317
170 163 153 151 178 184 160 157 159 160 164 163 157 153 158 168 172 168 163 161 130 102 232 191 109 48 355 298 262 281 289 287 280 275 278 279 278 282 291 302 302 303 304 302
178 189 191 189 195 179 155 156 157 154 159 163 162 167 174 183 189 180 160 142 142 151 238 90 60 52 296 268 272 279 284 287 296 291 284 269 270 280 288 289 293 301 300 299
165 181 192 187 174 165 161 154 147 152 165 170 162 166 188 186 176 173 135 148 163 196 209 115 137 235 261 255 275 278 276 286 299 301 300 284 281 282 287 286 290 301 306 305
187 187 179 187 182 166 151 153 159 172 183 169 162 165 184 176 155 138 134 143 153 197 188 154 180 225 248 268 275 286 294 326 323 313 308 307 295 286 290 298 304 297 294 294
185 189 181 205 180 168 175 186 184 172 172 169 161 156 156 143 145 153 172 177 173 196 222 201 195 214 239 257 273 295 300 278 257 271 303 302 299 304 309 310 300 297 298 300
185 176 180 180 179 184 183 188 187 173 171 174 158 149 154 164 172 178 201 208 193 208 224 225 221 229 247 260 269 279 284 285 286 289 291 290 295 299 307 302 304 306 305 308